Flag for Spain

Past Weather in 41°23'16"N, 2°10'11"E, Spain — Yesterday and Last 2 Weeks

Currently: 72 °F. Clear. (Weather station: Barcelona Airport, Spain). See more current weather

Past Weather in 41°23'16"N, 2°10'11"E — Graph

°F

41°23'16"N, 2°10'11"E Temperature Yesterday

Maximum temperature yesterday: 82 °F (at 11:00 am)
Minimum temperature yesterday: 75 °F (at 4:00 am)
Average temperature yesterday: 80 °F

High & Low Weather Summary for the Past Weeks

 TemperatureHumidityPressure
High82 °F (Jul 11, 2:00 pm)94% (Jul 10, 11:00 pm)30.09 "Hg (Jul 10, 11:00 pm)
Low68 °F (Jul 5, 4:30 am)51% (Jul 6, 2:30 pm)29.80 "Hg (Jul 6, 4:30 am)
Average76 °F75%29.96 "Hg
* Reported Jul 5 4:00 am — Jul 20 4:00 am, 41°23'16"N, 2°10'11"E. Weather by CustomWeather, © 2024

Note: Actual official high and low records may vary slightly from our data, if they occured in-between our weather recording intervals... More about our weather records

41°23'16"N, 2°10'11"E Weather History for the Previous 24 Hours

Scroll right to see more
 ConditionsComfort  
Time TempWeatherWind HumidityBarometerVisibility
4:00 am
Sat, Jul 20
73 °FClear.3 mph65%29.92 "Hg10 mi
3:30 am73 °FClear.1 mph69%29.92 "Hg10 mi
3:00 am73 °FClear.1 mph69%29.92 "Hg10 mi
2:30 am73 °FClear.3 mph69%29.95 "Hg10 mi
2:00 am75 °FPassing clouds.3 mph69%29.95 "HgN/A
1:30 am75 °FClear.1 mph69%29.95 "Hg10 mi
1:00 am75 °FClear.3 mph78%29.95 "Hg10 mi
12:30 am75 °FPassing clouds.3 mph83%29.98 "HgN/A
12:00 am75 °FClear.5 mph89%29.98 "Hg10 mi
11:30 pm
Fri, Jul 19
77 °FClear.3 mph89%29.98 "Hg10 mi
11:00 pm79 °FClear.2 mph84%29.98 "Hg10 mi
10:30 pm79 °FClear.2 mph84%29.98 "Hg10 mi
10:00 pm81 °FClear.1 mph79%29.98 "Hg10 mi
9:00 pm81 °FPassing clouds.5 mph79%29.98 "HgN/A
8:30 pm81 °FPassing clouds.7 mph74%29.98 "HgN/A
8:00 pm81 °FSunny.10 mph79%29.95 "Hg10 mi
7:30 pm81 °FSunny.12 mph79%29.98 "Hg10 mi
7:00 pm82 °FSunny.12 mph74%29.98 "Hg10 mi
6:30 pm82 °FPassing clouds.10 mph74%29.98 "HgN/A
6:00 pm82 °FPassing clouds.12 mph74%29.98 "HgN/A
5:30 pm82 °FPassing clouds.12 mph74%30.01 "HgN/A
5:00 pm82 °FPassing clouds.13 mph74%30.01 "HgN/A
4:30 pm82 °FPassing clouds.13 mph74%30.01 "HgN/A
3:30 pm82 °FPassing clouds.14 mph79%30.01 "HgN/A
3:00 pm82 °FSunny.17 mph79%30.01 "Hg10 mi
2:30 pm82 °FPassing clouds.16 mph74%30.01 "HgN/A
2:00 pm82 °FPassing clouds.16 mph74%30.01 "HgN/A
1:30 pm82 °FSunny.17 mph74%30.04 "Hg10 mi
1:00 pm82 °FPassing clouds.15 mph74%30.04 "HgN/A
12:30 pm82 °FSunny.15 mph66%30.01 "Hg10 mi
12:00 pm82 °FPassing clouds.15 mph74%30.04 "HgN/A
11:30 am81 °FPassing clouds.15 mph79%30.04 "HgN/A
11:00 am82 °FSunny.14 mph74%30.04 "Hg10 mi
10:30 am81 °FPassing clouds.10 mph79%30.04 "HgN/A
10:00 am81 °FPassing clouds.8 mph79%30.04 "HgN/A
9:30 am79 °FPassing clouds.7 mph84%30.04 "HgN/A
9:00 am79 °FPassing clouds.9 mph84%30.04 "HgN/A
8:30 am77 °FPassing clouds.7 mph89%30.04 "HgN/A
7:30 am77 °FPassing clouds.2 mph89%30.04 "HgN/A
7:00 am75 °FPassing clouds.7 mph83%30.04 "HgN/A
6:30 am77 °FPassing clouds.2 mph89%30.01 "HgN/A
6:00 am77 °FLight rain. Passing clouds.6 mph89%30.04 "HgN/A
5:30 am77 °FPassing clouds.8 mph89%30.04 "HgN/A
5:00 am77 °FPassing clouds.6 mph79%30.04 "HgN/A
Weather by CustomWeather, © 2024

See weather overview